Regional Weather Roundup
Issued by NWS State College, PA

Home | Current Version | Previous Version | Graphics & Text | Print | Product List | Glossary Off
Versions: 1 2 3 4 5 6 7 8 9 10 11 12 13 14 15 16 17 18 19 20 21 22 23 24 25 26 27 28 29 30 31 32 33 34 35 36 37 38 39 40 41 42 43 44 45 46 47 48 49 50

000
ASUS41 KCTP 220510
RWRCTP

REGIONAL WEATHER ROUNDUP
NATIONAL WEATHER SERVICE STATE COLLEGE PA
100 AM EDT MON SEP 22 2014

Note: "fair" indicates few or no clouds below 12,000 feet with no
significant weather and/or obstructions to visibility.

* = STATION THAT DOES NOT REPORT PRECIPITATION /E.G. RAIN...SNOW...ETC/
    THUNDER OR FOG.

PAZ002>004-007>009-013>016-020>023-029>032-220600-
WESTERN PENNSYLVANIA

CITY           SKY/WX    TMP DP  RH WIND       PRES   REMARKS
ERIE           CLOUDY    56  45  66 NW16G23   29.88R
MEADVILLE      LGT RAIN  51  48  89 NW12G22   29.90R
FRANKLIN*      CLOUDY    52  46  82 NW9G17    29.89R
NEW CASTLE     NOT AVBL
BEAVER COUNTY  NOT AVBL
BUTLER*        CLOUDY    54  48  82 NW6G20    29.91R
PITTSBURGH INT LGT RAIN  55  52  89 NW15G28   29.90R
PITTSBURGH     CLOUDY    57  50  77 NW10G17   29.89R
INDIANA*       CLOUDY    55  50  82 NW12G18   29.90S
LATROBE        CLOUDY    59  52  77 W8        29.89S
WASHINGTON CO* CLOUDY    55  52  88 W7G18     29.93R
$$

PAZ004>006-010>012-017>019-024>028-033>037-041-042-045-046-049>053-220600-
CENTRAL PENNSYLVANIA

CITY           SKY/WX    TMP DP  RH WIND       PRES   REMARKS
BRADFORD       LGT RAIN  52  50  93 W16G24    29.80R FOG
DUBOIS         CLOUDY    53  50  89 W13G23    29.84R
CLEARFIELD     PTCLDY    56  49  77 W12G18    29.81R
JOHNSTOWN      LGT RAIN  53  49  86 NW14G23   29.86R
ALTOONA        CLOUDY    60  49  66 W12G21    29.84R
STATE COLLEGE  CLOUDY    60  51  70 W10G17    29.79R
WILLIAMSPORT   RAIN      60  56  86 W5        29.73R
SELINSGROVE    CLEAR     60  54  80 VRB3      29.75R
FT INDIANTOWN  CLEAR     68  55  62 W8        29.74R
CAPITAL CITY   LGT RAIN  65  55  70 W7        29.75R
HARRISBURG     PTCLDY    66  57  72 NW9       29.74R
YORK           CLEAR     65  51  60 W7        29.75R
$$

PAZ038>040-043-044-047-048-054-055-060>062-067>071-220600-
EASTERN PENNSYLVANIA

CITY           SKY/WX    TMP DP  RH WIND       PRES   REMARKS
SCRANTON       PTCLDY    62  58  86 W5        29.71R
MOUNT POCONO   MOCLDY    59  32  36 NW8       29.72S
ALLENTOWN      MOCLDY    67  60  78 NW3       29.69R
QUAKERTOWN*    MOCLDY    66  61  82 NW5       29.71R
READING        PTCLDY    65  61  87 NW6       29.71R
LANCASTER      CLEAR     63  59  87 NW9       29.73R
COATESVILLE    PTCLDY    64  63  94 NW12      29.73R
POTTSTOWN      MOCLDY    65  60  84 NW6       29.72R
BLUE BELL      MOCLDY    68  63  83 CALM      29.69R
DOYLESTOWN     MOCLDY    65  61  87 VRB5      29.68R
WILLOW GROVE   NOT AVBL
NORTH PHILA    MOCLDY    70  61  73 W9        29.69R
PHILADELPHIA   MOCLDY    73  61  65 W14       29.69R
$$



USA.gov is the U.S. government's official web portal to all federal, state and local government web resources and services.